Weather in Uralskoye

Russia / Orenburg Oblast     52°11′37″N   58°54′52″E
temp.,
°C
wind,
m/s
gust,
m/s
humid.,
%
clouds,
%
prec.,
mm/h
press.,
hPa
HPBL,
m
5 december, sun
sun523:00−2ssw6149252 0.0 1023351
02:00−3ssw61591100 0.0 1022337
05:00−4ssw6158689 0.0 1021342
08:00−6ssw5128896 0.0 1020220
11:00−4ssw5138699 0.0 1020310
14:00−3ssw51384100 0.0 1019373
17:00−2sw41088100 0.0 1019355
20:00−2ssw4793100 0.0 1019259
6 december, mon
mon623:00−1ssw3698100 0.7 1019219
02:00−1ssw4798100 2.8 1018258
05:00−2sw41197100 4.6 1018451
08:00−2sw4998100 1.9 1018366
11:00−2wsw369784 2.5 1019227
14:00−5nw119710 0.0 102010
17:00−10nnw1198100 0.0 102310
20:00−11n119889 0.0 102610
7 december, tue
tue723:00−14n119998 0.0 10289
02:00−15nnw119956 0.0 10299
05:00−16nne1198100 0.0 10319
08:00−13nne1196100 0.0 103219
11:00−10nne119498 0.0 103345
14:00−10n11955 0.0 103410
17:00−15nne11975 0.0 10369
20:00−17nne119831 0.0 10379
8 december, wed
wed823:00−18nne219842 0.0 103810
02:00−18nne229936 0.0 103910
05:00−19ne229946 0.0 104010
08:00−19ene1110078 0.0 10409
11:00−15sse119899 0.0 104129
14:00−12ssw1296100 0.0 104070
17:00−13se1198100 0.0 104012
20:00−11sse2397100 0.0 104046
9 december, thu
thu923:00−12s379483 0.0 104096
02:00−13s2493100 0.0 104070
05:00−13s249299 0.0 104056
08:00−13sse2393100 0.0 104044
11:00−12sse239179 0.0 103961
14:00−10sse1189100 0.0 103821
17:00−12ese2290100 0.0 103811
20:00−13ese229171 0.0 103814